[Iaude] MPEC N15: 2024 NA [a=1.43,e=0.40,i=8.3,H=25.0]
    mpec at cfa.harvard.edu 
    mpec at cfa.harvard.edu
       
    Tue Jul  2 07:58:42 EDT 2024
    
    
  
M.P.E.C. 2024-N15                                  Issued 2024 July 2, 11:56 UT
     The Minor Planet Electronic Circulars contain information on unusual
         minor planets, routine data on comets and natural satellites,
         and occasional editorial announcements.  They are published
    on behalf of Division F of the International Astronomical Union by the
          Minor Planet Center, Smithsonian Astrophysical Observatory,
                          Cambridge, MA 02138, U.S.A.
			  
             Prepared using the Tamkin Foundation Computer Network
                              MPC at CFA.HARVARD.EDU
            URL https://www.minorplanetcenter.net/    ISSN 1523-6714
                                    2024 NA                                     
Observations:
     K24N00A  C2024 06 29.50600121 07 17.566-22 11 06.80         17.11GVEN015F51
     K24N00A* C2024 07 01.53385620 18 13.438-12 10 54.66         18.15oVEN015T05
     K24N00A  C2024 07 01.54018420 18 07.330-12 09 43.67         18.25oVEN015T05
     K24N00A  C2024 07 01.55083120 17 57.113-12 07 44.00         18.07oVEN015T05
     K24N00A  C2024 07 01.88451420 13 51.583-11 05 19.79         18.62cVEN015M22
     K24N00A  C2024 07 01.91866620 13 23.767-10 59 54.78         18.85cVEN015M22
     K24N00A  C2024 07 01.92053020 13 22.308-10 59 37.36         18.77cVEN015M22
     K24N00A  C2024 07 01.93607620 13 09.619-10 57 09.83         18.55cVEN015M22
     K24N00A  C2024 07 01.93701120 13 08.784-10 57 00.83         18.80cVEN015M22
     K24N00A KB2024 07 01.98285020 12 36.06 -10 55 10.4          18.4 GXEN015958
     K24N00A KB2024 07 01.98696020 12 32.84 -10 54 31.3          18.9 GXEN015958
     K24N00A KB2024 07 01.99106920 12 29.64 -10 53 53.4          19.0 GXEN015958
     K24N00A  C2024 07 02.04960 20 11 42.40 -10 44 53.6          18.8 RWEN015511
     K24N00A  C2024 07 02.05102 20 11 41.39 -10 44 40.7          18.9 RWEN015511
     K24N00A  C2024 07 02.05529 20 11 37.92 -10 44 00.4          18.4 RWEN015511
     K24N00A  C2024 07 02.05671 20 11 36.60 -10 43 44.4          18.6 RWEN015511
     K24N00A  C2024 07 02.05813 20 11 35.66 -10 43 32.1          18.7 RWEN015511
     K24N00A  C2024 07 02.05955 20 11 34.67 -10 43 20.3          18.9 RWEN015511
     K24N00A  C2024 07 02.06097 20 11 33.54 -10 43 05.5          19.0 RWEN015511
Observer details:
511 Haute Provence.  Observers V. Robert, A. Abramovici, J. Calixte, F.
    Karquel, F. Lagarrigue, C. Rasamoelina.  Measurers V. Robert, W. Thuillot,
    C. Barache, S. Bouquillon, T. Carlucci, F. Taris.  1.20-m f/6  reflector +
    CCD.
958 Observatoire de Dax.  Observer P. Dupouy.  0.50-m f/4.5 Reflector + CMO.
F51 Pan-STARRS 1, Haleakala.  Observers J. Herman, T. Lowe, P. Minguez, A.
    Schultz, I. Smith.  Measurers K. Chambers, T. de Boer, J. Fairlamb, H.
    Gao, M. Huber, C.-C. Lin, E. Magnier, Y. Ramanjooloo, R. Wainscoat, R.
    Weryk.  1.8-m Ritchey-Chretien + CCD.
M22 ATLAS South Africa, Sutherland.  Observers L. Denneau, R. Siverd, J.
    Tonry, H. Weiland.  Measurers L. Denneau, N. Erasmus, A. Fitzsimmons, J.
    Robinson, R. Siverd, J. Tonry, H. Weiland.  0.5-m Reflector + CCD.
T05 ATLAS-HKO, Haleakala.  Observers L. Denneau, R. Siverd, J. Tonry, H.
    Weiland.  Measurers L. Denneau, N. Erasmus, A. Fitzsimmons, J. Robinson,
    R. Siverd, J. Tonry, H. Weiland.  0.5-m Reflector + CCD.
Orbital elements:
2024 NA                                                  Earth MOID = 0.0078 AU
Epoch 2024 Mar. 31.0 TT = JDT 2460400.5                 Veres                   
M 337.22397              (2000.0)            P               Q                  
n   0.57455510     Peri.  293.80153     -0.82987372     +0.53933173             
a   1.4330068      Node   279.12269     -0.44458868     -0.79398357             
e   0.4009945      Incl.    8.32384     -0.33712093     -0.28055547             
P   1.72           H   25.08          G   0.15           U   7                  
Residuals in seconds of arc
240629 F51  0.0   0.0     240701 M22  0.4+  0.0     240702 511  0.1-  1.6-
240701 T05  0.0   0.2+    240701 M22  0.7-  0.2+    240702 511  3.4-  1.2+
240701 T05  0.0   0.1-    240701 958  0.3-  0.1-    240702 511  1.1-  0.4+
240701 T05  0.0   0.1-    240701 958  0.2-  0.6+    240702 511  0.5+  0.9-
240701 M22  0.2+  0.1+    240701 958  0.1+  0.1+    240702 511  0.0   0.8+
240701 M22  0.2-  0.1-    240702 511  0.9+  2.2-
240701 M22  0.7+  0.3-    240702 511  2.3+  2.5-
Ephemeris:
2024 NA                  a,e,i = 1.43, 0.40, 8                   q = 0.8584
Date    TT    R. A. (2000) Decl.     Delta      r    Elong.  Phase     V
2024 06 02    06 57 13.2 -03 21 25   0.1621  0.9004    42.1   131.0    26.7
...
2024 06 17    06 45 45.4 -09 09 52   0.06489 0.9642    36.0   141.7    26.1
...
2024 06 25    05 11 22.8 -28 01 17   0.01758 1.0061    53.7   125.5    21.6
...
2024 07 01    20 26 46.6 -13 58 51   0.02611 1.0401   153.3    26.1    18.4
2024 07 02    20 12 17.8 -10 48 57   0.03190 1.0459   155.8    23.5    18.8
2024 07 03    20 02 26.3 -08 37 04   0.03785 1.0517   157.3    21.9    19.1
...
2024 07 09    19 37 05.8 -03 05 44   0.07513 1.0875   159.9    18.7    20.6
...
2024 07 17    19 26 52.0 -01 21 40   0.1275  1.1367   159.6    18.1    21.8
...
2024 08 01    19 22 44.6 -01 32 02   0.2353  1.2306   153.9    21.3    23.4
M. P. C. Staff               (C) Copyright 2024 MPC           M.P.E.C. 2024-N15
    
    
More information about the Iaude
mailing list